DW4480 Weather Reports


time (UTC)temp
C
wind
direction
speed
KPH
gust
KPH
rain 1hr
cm
rain 24hr
cm
rain mn
cm
humidity
%
barometer
mb
20200531073041 16 303 0.0 9.7 0.00 0.00 0.00 59 1024.7
20200531071648 15 138 0.0 3.2 0.00 0.00 0.00 64 1024.7
20200531070035 13 119 0.0 0.0 0.00 0.00 0.00 69 1024.7
20200531064549 13 285 0.0 0.0 0.00 0.00 0.00 72 1024.7
20200531063017 12 130 0.0 0.0 0.00 0.00 0.00 80 1024.5
20200531061521 12 189 0.0 0.0 0.00 0.00 0.00 89 1024.5
20200531060012 11 298 0.0 0.0 0.00 0.00 0.00 91 1024.5
20200531054507 10 298 0.0 0.0 0.00 0.00 0.00 92 1024.3
20200531053010 10 298 0.0 0.0 0.00 0.00 0.00 93 1024.2
20200531051759 9 298 0.0 0.0 0.00 0.00 0.00 93 1024.2
20200531050244 8 298 0.0 0.0 0.00 0.00 0.00 93 1024.1
20200531044746 8 298 0.0 0.0 0.00 0.00 0.00 93 1024.0
20200531043042 8 298 0.0 0.0 0.00 0.00 0.00 92 1023.9
20200531041543 7 298 0.0 0.0 0.00 0.00 0.00 91 1023.9
20200531040028 7 298 0.0 0.0 0.00 0.00 0.00 91 1023.9
20200531034538 7 298 0.0 0.0 0.00 0.00 0.00 91 1023.7
20200531033024 7 298 0.0 0.0 0.00 0.00 0.00 90 1023.7
20200531031538 7 298 0.0 0.0 0.00 0.00 0.00 90 1023.7
20200531030020 8 298 0.0 0.0 0.00 0.00 0.00 90 1023.7
20200531024511 8 298 0.0 0.0 0.00 0.00 0.00 90 1023.6
20200531023026 8 298 0.0 0.0 0.00 0.00 0.00 89 1023.5
20200531021506 8 298 0.0 0.0 0.00 0.00 0.00 88 1023.6
20200531020005 8 298 0.0 0.0 0.00 0.00 0.00 87 1023.6
20200531014524 8 298 0.0 0.0 0.00 0.00 0.00 87 1023.7
20200531013135 8 298 0.0 0.0 0.00 0.00 0.00 87 1023.7
20200531013001 8 298 0.0 0.0 0.00 0.00 0.00 86 1023.7
20200531011652 8 298 0.0 0.0 0.00 0.00 0.00 86 1023.7
20200531010205 9 298 0.0 0.0 0.00 0.00 0.00 85 1023.7
20200531004633 9 298 0.0 0.0 0.00 0.00 0.00 84 1023.7
20200531003135 9 298 0.0 0.0 0.00 0.00 0.00 83 1023.7
20200531001626 10 298 0.0 0.0 0.00 0.00 0.00 82 1023.6
20200531000122 10 298 0.0 0.0 0.00 0.00 0.00 81 1023.7
20200530234639 10 298 0.0 0.0 0.00 0.00 0.00 79 1023.8
20200530233120 10 298 0.0 0.0 0.00 0.00 0.00 77 1023.6
20200530230132 11 298 0.0 0.0 0.00 0.00 0.00 74 1023.6
20200530224604 11 298 0.0 0.0 0.00 0.00 0.00 73 1023.6
20200530223233 11 298 0.0 0.0 0.00 0.00 0.00 72 1023.6
20200530221623 11 298 0.0 0.0 0.00 0.00 0.00 71 1023.6
20200530220109 11 298 0.0 0.0 0.00 0.00 0.00 70 1023.6
20200530214601 12 298 0.0 0.0 0.00 0.00 0.00 70 1023.6
20200530213052 12 298 0.0 0.0 0.00 0.00 0.00 70 1023.5
20200530211613 13 298 0.0 0.0 0.00 0.00 0.00 71 1023.4
20200530210048 13 284 0.0 0.0 0.00 0.00 0.00 70 1023.5
20200530204649 13 360 0.0 0.0 0.00 0.00 0.00 70 1023.5
20200530203037 14 27 0.0 0.0 0.00 0.00 0.00 69 1023.3
20200530201553 15 27 0.0 0.0 0.00 0.00 0.00 67 1023.4
20200530200136 15 38 0.0 4.8 0.00 0.00 0.00 66 1023.2
20200530194603 16 42 0.0 0.0 0.00 0.00 0.00 66 1023.0
20200530193109 16 84 0.0 1.6 0.00 0.00 0.00 64 1022.9
20200530191600 17 78 0.0 1.6 0.00 0.00 0.00 62 1022.6
20200530190114 17 117 0.0 0.0 0.00 0.00 0.00 60 1022.5
20200530184554 18 98 0.0 1.6 0.00 0.00 0.00 58 1022.5
20200530183040 18 267 0.0 14.5 0.00 0.00 0.00 57 1022.4
20200530181552 19 180 0.0 6.4 0.00 0.00 0.00 56 1022.4
20200530180057 19 88 0.0 12.9 0.00 0.00 0.00 57 1022.5
20200530174546 18 13 1.6 19.3 0.00 0.00 0.00 59 1022.4
20200530173030 18 5 9.7 22.5 0.00 0.00 0.00 60 1022.4
20200530171557 18 13 17.7 25.7 0.00 0.00 0.00 61 1022.5
20200530170028 18 33 11.3 30.6 0.00 0.00 0.00 61 1022.5
20200530164542 19 22 4.8 32.2 0.00 0.00 0.00 56 1022.5
20200530163030 20 30 12.9 24.1 0.00 0.00 0.00 52 1022.5
20200530161519 20 355 4.8 24.1 0.00 0.00 0.00 50 1022.7
20200530160028 20 29 19.3 29.0 0.00 0.00 0.00 50 1022.7
20200530154529 20 34 16.1 30.6 0.00 0.00 0.00 46 1022.8
20200530153028 21 14 8.0 25.7 0.00 0.00 0.00 45 1022.9
20200530151551 21 34 1.6 16.1 0.00 0.00 0.00 45 1023.0
20200530150017 21 65 0.0 3.2 0.00 0.00 0.00 43 1023.2
20200530144522 21 51 6.4 19.3 0.00 0.00 0.00 42 1023.1
20200530143014 21 344 4.8 19.3 0.00 0.00 0.00 41 1023.2
20200530141513 22 270 0.0 8.0 0.00 0.00 0.00 42 1023.3
20200530140012 21 48 0.0 8.0 0.00 0.00 0.00 42 1023.3
20200530134511 22 360 1.6 14.5 0.00 0.00 0.00 41 1023.2
20200530133025 22 22 11.3 17.7 0.00 0.00 0.00 41 1023.3
20200530131539 22 40 0.0 8.0 0.00 0.00 0.00 40 1023.3
20200530130012 22 15 0.0 8.0 0.00 0.00 0.00 38 1023.4
20200530124514 22 355 1.6 9.7 0.00 0.00 0.00 43 1023.7
20200530123011 22 273 4.8 12.9 0.00 0.00 0.00 41 1023.8
20200530121720 21 67 1.6 17.7 0.00 0.00 0.00 44 1023.8
20200530120247 22 49 0.0 16.1 0.00 0.00 0.00 41 1024.0
20200530114628 22 355 1.6 8.0 0.00 0.00 0.00 42 1024.1
20200530113147 21 123 0.0 12.9 0.00 0.00 0.00 43 1024.2
20200530111712 21 49 0.0 1.6 0.00 0.00 0.00 45 1024.2
20200530110118 20 314 0.0 17.7 0.00 0.00 0.00 46 1024.3
20200530104627 21 315 0.0 6.4 0.00 0.00 0.00 43 1024.4
20200530103125 21 343 1.6 12.9 0.00 0.00 0.00 44 1024.5
20200530101608 21 34 1.6 8.0 0.00 0.00 0.00 44 1024.5
20200530100151 21 252 1.6 9.7 0.00 0.00 0.00 48 1024.6
20200530094606 21 15 0.0 14.5 0.00 0.00 0.00 47 1024.8
20200530093057 21 32 3.2 14.5 0.00 0.00 0.00 45 1025.0
20200530090042 20 100 1.6 12.9 0.00 0.00 0.00 45 1025.0
20200530084555 20 217 1.6 6.4 0.00 0.00 0.00 50 1024.9
20200530083032 19 107 0.0 4.8 0.00 0.00 0.00 51 1025.1
20200530081655 18 14 3.2 8.0 0.00 0.00 0.00 52 1025.1
20200530080013 18 322 1.6 4.8 0.00 0.00 0.00 56 1025.3
20200530074515 17 296 0.0 4.8 0.00 0.00 0.00 60 1025.3